Tracking 20942 objects as of 10-Jul-2020
HD Live streaming from Space Station
objects crossing your sky now

THORAD DELTA 1 DEB

Track THORAD DELTA 1 DEB now!
10-day predictions


NORAD ID: 8784
Int'l Code: 1974-089DL
Perigee: 1,074.2 km
Apogee: 1,448.9 km
Inclination: 101.3 °
Period: 110.6 minutes
Semi major axis: 7632 km
RCS: 0.0626 m2 (small)
Launch date: November 15, 1974
Source: United States (US)
Launch site: AIR FORCE WESTERN TEST RANGE (AFWTR)

Note: This is SATELLITE DEBRIS
aabbcc
Your satellite tracking list
Your tracking list is empty




NASA's NSSDC Master Catalog

Two Line Element Set (TLE):
1  8784U 74089DL  20191.64995382 +.00003305 +00000-0 +93952-2 0  9995
2  8784 101.3081 080.5304 0245499 007.8262 044.9496 13.01962358246366
Source of the keplerian elements: AFSPC